Location: Lecco
(45.8566°N, 9.3977°E)
Time: 08:42:22
(UTC+02:00)

Altair - Pass Details

Date: 17 August 2020
Orbit: 1501 x 1682 km, 47.2° (Epoch: 25 September)

Event Time Altitude Azimuth Distance (km) Brightness Sun altitude
Rises 06:14:17 0° 282° (WNW) 4,767 9.6 -2.6°
Reaches altitude 10° 06:17:24 10° 283° (WNW) 3,758 9.1 -2.1°
Maximum altitude 06:26:54 89° 195° (SSW) 1,530 7.6 -0.5°
Drops below altitude 10° 06:36:08 10° 107° (ESE) 3,654 10.5 1.0°
Sets 06:39:07 0° 107° (ESE) 4,629 11.1 1.5°
